sat.trackr.live / text

‹ back to catalog

STARLINK-36935

NORAD 68032 · 2026-040T

PAYLOAD ACTIVE UNKNOWN

§ Identity

Operator
Country
US
Launch date
2026-03-01
Launch site
AFWTR
Launch vehicle
Mass (kg)
RCS (m²)

Purposes: comms

External: N2YO · Heavens-Above · Gunter

§ Orbital elements

Epoch: 2026-05-25T03:20:10.730112Z

Period
93.91 min
Inclination
97.2844°
Eccentricity
0.0001268
Mean motion
15.33453133 rev/d
Perigee alt
464.7 km
Apogee alt
466.4 km
Semi-major
6,843.7 km
B*
8.6973e-4
RAAN
94.2265°
Arg perigee
84.9905°
Mean anomaly
275.1482°
Rev number
1,318

§ Raw data

STARLINK-369351 68032U 26040T   26145.13901308  .00028115  00000+0  86973-3 0  99962 68032  97.2844  94.2265 0001268  84.9905 275.1482 15.33453133 13188

JSON: /api/v1/satellites/68032 · /tle

For live sub-satellite position, see the globe view (requires WebGL).

§ Visibility from observer

Set your observer location to see the next 7 days of passes ≥ 10°. The values pass through the URL so the page stays shareable.

No JS? Fill the form by hand. The geolocation button needs JavaScript.